SCP
1 1 1 0 0 0 0 0 0 0 0 0 0 0 1 1 1 0 0 0 0 0 0 1 1 1 1 1 1 1 1 1 1 1 1 1 1 1 1 1 1 1 1 1 1 1 1 1 1
1 1 0 0 0 0 0 0 0 0 0 0 0 0 0 1 1 0 0 0 0 0 0 1 1 1 1 1 1 1 1 1 1 1 1 1 1 1 1 1 1 1 1 1 1 1 1 1 1
1 0 0 0 0 0 0 0 0 0 0 0 0 0 0 0 0 0 0 0 1 0 0 0 1 1 1 1 1 1 1 1 1 1 1 1 1 1 1 1 1 1 1 1 1 1 1 1 1
0 0 0 0 0 0 0 0 0 1 1 0 0 0 0 0 0 0 0 1 1 0 0 1 1 1 1 1 1 1 1 1 1 1 1 1 1 1 1 1 1 1 1 1 1 1 1 1 1
0 0 0 0 0 0 0 0 0 0 0 0 0 0 0 0 0 1 1 1 1 1 1 1 1 1 1 1 1 1 1 1 1 1 1 1 1 1 1 1 1 1 1 1 1 1 1 1 1
0 0 0 0 0 0 0 0 0 0 1 1 1 0 0 0 1 1 1 0 0 1 1 1 1 1 1 1 1 1 1 1 1 1 1 1 1 1 1 1 1 1 1 1 1 1 1 1 1
0 0 0 0 0 0 0 0 0 0 1 1 1 1 0 1 1 1 1 0 0 1 1 1 1 1 1 1 1 1 2 2 2 2 2 1 1 1 1 1 1 1 1 1 1 1 1 1 1
0 0 0 0 0 0 0 0 0 0 0 1 1 1 1 1 1 1 0 0 0 1 1 1 0 0 1 1 1 2 2 2 2 2 2 2 1 1 1 1 1 1 1 1 1 1 1 1 1
0 0 0 0 0 0 0 0 0 0 0 0 0 1 1 1 1 1 0 0 0 1 1 0 0 0 0 1 1 1 2 2 2 2 2 2 1 1 1 1 1 1 1 1 1 1 1 1 1
0 0 0 0 0 0 0 0 1 1 0 0 0 1 1 1 1 1 0 0 0 0 0 0 0 0 0 1 1 1 1 1 1 1 1 1 1 1 1 1 1 1 1 1 1 1 1 1 1
0 0 0 0 0 0 0 0 1 1 0 0 1 2 2 2 1 1 1 1 1 0 0 0 0 0 0 0 0 0 1 1 1 1 1 1 1 1 1 1 1 1 1 1 1 1 1 1 1
0 0 0 0 0 0 0 0 0 0 0 0 1 2 2 2 1 1 1 1 1 1 0 0 0 0 0 0 0 0 0 1 1 1 1 1 1 0 0 0 0 1 1 1 1 1 1 1 1
0 0 0 0 0 0 0 0 0 0 0 0 1 1 1 1 1 1 1 1 1 0 0 0 0 0 0 0 0 0 0 0 0 0 0 1 1 0 0 0 1 1 1 1 2 2 2 2 2
0 0 0 0 0 0 0 0 0 0 0 0 1 1 1 1 1 1 1 1 0 0 0 0 0 0 0 0 0 0 0 0 0 0 0 0 1 0 1 1 1 1 1 1 2 2 2 2 2
0 0 0 0 0 0 0 0 0 0 0 0 0 1 1 1 1 1 1 1 0 0 0 0 0 0 0 0 0 0 0 0 0 0 0 0 1 1 1 1 1 1 1 1 1 2 2 2 2
0 0 0 0 0 0 0 0 0 0 0 0 0 1 1 1 1 1 1 1 1 0 0 0 0 0 0 0 0 0 0 0 0 0 0 1 1 1 1 1 1 1 1 1 1 1 1 1 1
0 0 0 0 0 0 0 0 0 0 0 0 1 1 1 1 1 1 1 1 1 0 0 0 0 0 0 0 0 0 0 0 0 0 0 1 1 1 1 1 1 1 0 0 0 1 1 1 1
0 0 0 0 0 0 0 0 0 0 0 1 1 1 1 1 1 2 2 2 1 0 0 0 0 0 0 0 0 0 1 0 0 0 0 1 1 1 1 1 1 1 1 1 0 0 0 0 0
0 0 0 0 0 0 0 0 0 0 0 1 1 1 1 1 1 2 3 3 1 1 0 0 0 1 1 1 1 1 1 1 1 1 1 1 1 1 1 1 1 1 1 1 1 1 1 1 0
0 0 0 0 0 0 0 0 0 0 1 1 1 1 1 1 1 3 3 3 2 1 1 1 1 1 1 1 1 1 1 1 1 1 1 1 1 1 1 1 1 1 1 1 1 2 2 1 1
0 0 0 0 0 0 0 0 0 1 1 1 1 1 1 1 1 2 3 3 2 1 1 1 1 1 1 2 2 2 1 1 1 1 1 1 1 1 1 1 1 1 2 2 2 2 2 2 2
0 0 0 0 0 0 0 0 0 0 1 1 1 1 1 1 1 2 2 2 2 2 2 2 2 2 2 2 2 2 1 1 1 1 1 1 1 1 1 1 2 2 2 2 2 2 3 3 3
0 0 0 0 0 0 0 0 0 0 1 1 2 3 3 2 2 1 2 2 1 1 2 2 2 2 2 2 2 2 1 1 1 1 1 1 1 1 1 2 2 2 2 2 2 3 3 4 4
0 0 0 0 0 0 0 0 0 1 1 1 3 4 5 4 3 3 3 3 2 2 2 3 3 2 2 2 2 2 2 1 1 1 1 2 2 2 2 2 2 3 3 3 3 3 4 4 5
0 0 0 0 0 0 0 0 1 2 2 2 3 5 6 7 7 7 7 6 6 5 5 4 4 3 3 3 2 2 2 2 2 2 2 2 3 3 3 3 3 3 3 3 3 3 4 5 5
0 0 0 0 0 0 0 1 2 3 4 4 4 5 6 7 8 10 10 11 10 10 9 8 7 6 5 4 3 3 2 2 2 3 3 3 3 3 3 3 3 3 3 3 3 3 4 5 5
0 0 0 0 0 0 0 1 1 2 4 5 5 4 4 4 6 8 9 10 10 11 11 11 11 9 8 7 6 5 4 3 3 3 3 3 2 2 2 2 2 2 2 3 3 3 4 4 4
0 0 0 0 0 0 0 0 0 1 2 4 3 2 2 2 3 4 4 5 6 7 8 10 11 10 10 9 8 7 6 4 3 3 2 2 2 1 1 1 1 1 2 2 2 3 3 3 3
0 0 0 0 0 0 0 0 0 0 1 1 1 1 2 2 2 1 1 2 2 3 4 5 6 7 7 7 7 6 6 5 4 3 3 2 1 1 1 1 1 1 1 2 2 2 3 3 4
0 0 0 0 0 0 0 0 0 0 0 1 1 1 2 2 2 1 1 1 2 2 2 3 3 4 4 5 5 5 5 5 5 5 4 3 2 1 1 1 1 1 1 1 2 2 3 4 5
Wind_Speed
8 6 2 1 4 5 3 2 1 2 3 2 4 5 5 4 2 2 1 2 3 2 1 2 5 7 8 8 9 10 11 11 12 13 14 14 14 15 15 15 15 15 15 15 15 15 15 15 15
6 5 1 3 5 4 2 2 3 2 4 4 4 5 5 4 3 3 1 1 3 3 1 2 6 7 8 8 9 10 10 11 11 12 13 14 14 15 15 14 15 15 15 15 15 15 15 15 14
6 3 2 4 4 3 2 1 4 4 3 2 3 4 4 3 3 2 2 4 4 2 2 2 7 7 7 8 8 9 10 10 11 11 12 13 14 14 14 14 14 14 14 14 14 14 14 14 13
3 1 3 5 3 1 3 3 5 5 3 5 4 4 4 2 3 3 5 5 5 3 2 2 6 7 7 8 8 8 9 9 10 11 11 12 13 13 13 13 13 13 13 13 13 13 13 13 12
2 3 5 4 2 1 2 4 3 3 3 4 4 4 3 3 6 7 6 5 4 3 2 2 5 6 7 7 7 7 7 8 9 10 10 11 12 12 12 12 12 11 11 11 12 12 12 11 11
3 4 5 2 2 2 2 3 3 4 4 3 4 3 2 2 6 5 5 4 4 3 2 2 4 6 6 6 6 6 7 7 8 10 10 10 11 11 11 11 10 10 10 10 11 11 11 10 10
3 4 3 2 2 1 2 2 3 4 4 3 3 4 2 2 4 5 5 4 3 3 2 2 1 2 4 5 5 5 6 7 8 9 9 10 10 10 10 10 10 10 10 10 10 10 10 9 9
3 4 2 1 2 1 3 3 3 3 3 3 3 5 4 3 5 6 5 4 3 2 2 2 2 2 2 2 4 4 5 6 6 7 8 9 9 9 9 8 9 9 9 9 9 9 9 8 7
3 5 1 3 4 2 4 4 2 3 4 2 2 3 5 9 8 7 5 3 2 2 1 1 2 2 2 2 2 3 3 4 4 4 6 6 3 4 4 6 7 7 8 8 8 7 7 7 6
4 3 4 3 4 5 5 4 5 4 4 3 4 6 9 10 9 7 5 4 3 2 1 1 1 1 1 1 2 2 2 2 2 2 2 3 3 2 3 5 6 6 6 6 7 6 5 4 3
3 4 2 1 4 6 5 4 3 7 3 4 7 9 10 9 7 7 5 4 4 3 2 1 1 1 1 1 1 1 1 1 2 2 3 3 2 2 1 2 2 3 4 3 4 3 3 3 2
3 1 2 2 4 5 5 4 3 3 4 5 9 11 11 10 8 7 6 4 3 3 2 1 1 1 1 1 1 1 1 1 1 1 2 3 2 2 1 2 2 2 2 3 2 2 3 3 3
2 0 1 3 5 5 6 4 3 1 4 8 9 10 10 9 7 6 5 4 4 4 3 2 2 2 1 1 0 1 1 1 1 1 2 3 2 2 2 2 2 2 3 3 3 3 3 3 3
2 3 4 4 4 3 5 2 3 2 7 9 9 8 9 8 7 6 5 5 4 4 3 3 3 2 2 1 1 1 1 1 1 1 2 3 3 3 2 2 2 2 3 3 3 4 3 3 3
4 5 5 2 2 2 5 2 1 4 8 9 8 7 7 6 6 7 7 6 6 5 4 4 4 3 2 2 1 1 1 1 1 1 2 3 3 3 3 3 3 2 3 4 4 4 3 3 3
4 5 2 2 1 2 5 2 3 6 9 8 7 7 7 6 6 6 6 5 5 4 4 4 4 3 2 2 1 1 1 2 1 1 2 3 4 4 3 3 2 3 3 3 3 3 4 3 2
4 2 1 2 2 3 3 3 3 6 8 8 8 7 7 6 5 5 6 6 5 5 5 4 3 3 3 2 2 2 1 1 1 1 2 2 3 4 3 2 2 3 3 3 3 3 3 3 3
3 2 2 3 2 3 2 3 3 6 8 7 7 6 6 7 8 6 6 6 5 4 4 4 4 3 3 2 2 2 1 1 1 1 2 2 2 3 4 3 3 3 3 3 3 4 3 2 3
5 3 2 3 2 3 3 3 4 6 6 7 7 7 7 8 6 5 6 6 5 4 4 4 4 4 3 3 2 2 1 1 1 1 2 2 3 3 3 3 3 4 4 4 4 4 4 2 3
4 3 2 2 1 3 1 2 2 5 8 8 8 8 8 6 4 5 6 6 6 6 6 5 5 4 4 3 3 2 2 1 1 1 1 2 2 3 3 3 3 3 4 4 4 4 3 2 2
2 5 4 3 1 2 2 3 2 3 3 4 6 7 7 9 8 8 7 7 6 7 7 7 6 5 4 4 3 2 2 2 1 1 0 1 2 3 3 3 3 3 4 4 4 4 4 3 1
3 5 5 4 3 1 1 2 5 3 3 5 6 6 7 8 7 7 8 7 8 8 7 7 6 5 4 4 4 4 3 2 2 1 1 1 1 2 3 3 3 3 3 4 4 3 3 3 2
5 3 3 3 3 1 1 1 7 1 4 8 8 8 8 8 8 9 9 9 8 7 7 6 6 5 4 4 5 4 3 2 1 1 1 1 1 1 2 3 3 3 3 4 4 3 3 3 3
4 6 6 5 5 0 3 3 7 5 8 7 8 8 8 7 8 8 7 6 6 6 6 6 6 5 5 5 5 5 5 4 3 2 1 1 0 0 1 2 3 3 3 4 4 4 4 4 3
5 6 4 4 3 5 2 3 9 7 7 8 9 9 8 7 7 8 8 7 7 7 7 7 7 6 5 5 5 5 5 5 5 4 3 2 1 1 2 2 2 3 3 3 3 3 4 4 4
4 8 8 5 5 4 1 5 8 5 4 5 6 7 7 7 8 8 9 9 8 8 8 8 7 6 6 6 5 5 5 4 3 3 3 3 2 2 2 2 2 2 3 3 3 3 3 3 4
6 4 5 7 2 1 4 6 8 2 2 3 4 5 7 8 8 8 8 9 8 8 9 9 8 7 6 6 5 4 4 4 4 3 3 2 1 1 1 2 2 2 2 3 3 2 3 3 3
5 8 6 6 5 2 4 4 5 5 5 3 4 6 6 6 6 7 7 8 8 8 8 7 8 8 6 6 6 5 4 5 4 3 3 3 2 1 1 1 2 1 2 2 2 2 2 3 2
3 4 5 4 5 6 3 7 7 8 7 6 6 6 6 6 6 6 6 7 7 6 6 7 7 6 6 6 5 4 4 4 4 4 4 3 3 3 2 2 2 2 2 2 2 2 2 3 2
3 5 7 6 3 4 4 9 5 4 5 5 6 4 5 6 6 5 6 6 6 6 6 7 7 7 7 6 5 5 4 4 4 4 3 3 3 3 3 3 2 2 2 2 3 3 2 3 3
Wind_Direction
155 148 147 113 57 49 34 19 92 76 58 45 74 80 88 74 100 143 250 131 123 115 85 111 97 94 91 91 92 94 96 100 103 109 117 120 120 120 121 120 124 125 124 122 120 121 121 122 119
148 155 148 62 74 64 0 358 86 79 128 124 76 70 73 65 64 101 108 128 118 115 95 111 106 100 96 94 96 99 101 102 105 110 116 119 120 119 120 120 123 125 126 125 122 121 123 122 120
166 178 89 69 82 138 161 116 110 100 105 80 66 55 67 87 108 130 157 130 107 99 88 124 111 106 101 99 101 104 106 107 110 113 117 120 122 122 122 122 124 126 126 127 125 125 124 122 121
155 70 56 67 70 202 160 147 135 123 71 50 75 60 55 63 124 131 128 123 107 91 76 105 110 107 103 101 104 105 109 114 115 119 119 123 126 127 127 126 126 126 128 129 129 128 127 125 122
77 70 57 53 34 32 102 139 132 102 76 64 75 75 40 19 93 111 119 119 114 94 66 74 110 107 101 102 104 105 109 118 125 127 125 125 127 130 131 130 130 130 132 132 131 131 130 128 125
66 68 73 71 52 56 97 125 104 88 93 89 82 83 50 78 104 120 116 111 109 104 75 60 114 112 105 102 100 101 106 119 127 133 133 131 132 134 134 134 133 134 133 133 133 133 132 129 127
97 85 106 132 110 116 156 115 109 112 102 107 109 94 93 110 123 119 105 98 96 90 72 48 70 97 106 108 103 101 105 111 121 132 137 136 137 138 138 138 139 138 135 134 134 134 133 131 128
128 94 81 121 145 172 142 108 101 111 108 117 111 129 159 167 128 107 91 86 92 83 58 50 55 61 63 74 102 107 107 111 120 130 137 138 139 141 143 141 143 143 140 136 134 135 131 126 124
102 76 155 192 171 165 135 110 104 85 104 102 98 133 146 137 128 111 96 83 90 99 56 64 65 64 65 58 69 77 90 95 105 121 133 131 113 118 134 144 150 150 145 140 135 130 127 122 117
99 127 214 196 166 150 139 130 136 107 101 89 82 91 120 133 136 135 139 147 157 176 194 119 99 91 85 79 55 40 47 53 70 82 98 103 105 118 134 142 159 156 147 138 133 127 120 110 97
137 174 196 148 142 133 130 126 123 128 156 179 156 143 142 144 147 153 160 164 176 181 186 180 162 123 119 65 64 56 50 55 72 93 106 105 104 114 118 128 142 124 118 106 106 100 96 99 101
133 210 161 143 128 124 132 129 118 158 194 165 154 150 150 156 164 170 171 172 161 160 191 181 160 146 147 118 78 82 74 78 93 106 120 123 120 109 116 122 127 113 110 111 101 101 99 97 101
112 73 80 119 118 118 109 116 129 143 117 127 136 144 158 165 171 173 167 167 163 173 187 176 157 160 157 124 121 115 122 119 119 117 130 138 136 138 139 136 122 122 122 129 120 111 104 99 94
114 86 71 84 101 111 116 107 105 149 134 136 147 159 169 173 174 167 167 173 178 182 181 169 159 163 149 136 138 101 99 93 94 115 143 144 142 138 135 130 123 126 133 134 126 124 114 101 96
90 81 55 46 90 121 111 64 200 155 143 150 162 167 170 177 175 181 184 183 185 183 176 172 169 160 154 149 149 113 92 99 103 109 123 134 136 138 139 133 133 136 131 127 121 118 108 107 104
61 67 61 288 117 125 120 216 215 155 155 166 175 175 178 189 191 193 187 183 182 173 171 179 172 158 163 156 137 110 106 118 116 106 102 118 131 136 132 135 137 132 127 126 128 126 118 116 113
44 100 201 272 193 143 142 225 217 165 167 179 186 186 183 190 200 200 191 186 182 178 174 168 165 163 164 153 124 106 107 123 128 114 114 127 136 139 137 137 133 132 129 130 138 121 126 129 126
190 179 208 224 223 155 179 235 195 176 180 189 193 193 190 197 206 196 189 182 176 176 171 164 163 160 146 127 105 92 85 96 108 119 138 142 144 145 141 137 142 141 134 133 133 126 121 126 119
157 159 215 238 198 156 203 232 214 186 192 197 201 200 200 209 206 186 183 179 167 167 175 172 168 168 146 136 141 144 150 150 123 139 151 152 150 143 143 149 150 147 149 153 146 134 123 120 122
140 153 233 288 161 157 174 274 245 194 203 201 199 201 204 207 197 192 185 181 182 180 184 177 179 173 166 159 153 149 146 148 153 139 135 153 152 154 153 156 159 154 148 148 149 146 137 152 149
163 177 195 195 74 55 95 332 284 245 219 213 208 204 202 203 200 198 194 194 191 190 187 185 186 179 174 159 127 110 87 66 65 81 153 163 154 155 150 156 159 156 156 163 168 168 163 169 169
218 208 179 155 122 283 127 269 278 243 241 224 222 213 210 209 200 198 195 194 198 198 186 182 184 179 172 159 151 151 151 166 188 163 160 130 134 144 147 158 164 159 159 166 180 178 168 157 177
194 162 136 129 131 71 28 169 285 238 242 239 225 218 215 205 197 197 198 197 196 189 181 179 177 179 174 166 164 160 168 179 146 107 110 94 114 136 153 165 164 166 170 177 182 173 167 172 183
132 81 62 54 73 316 229 174 273 226 221 227 218 217 214 203 195 198 197 190 190 179 173 168 170 180 174 169 170 172 177 173 161 166 166 166 135 144 172 172 173 178 180 183 190 182 178 191 190
104 97 52 8 13 252 224 187 249 244 222 210 208 211 211 201 193 192 189 186 186 181 179 174 174 183 178 173 179 184 184 179 183 185 184 184 191 215 214 192 187 189 190 187 185 181 189 194 193
167 141 156 183 212 266 249 229 253 265 234 210 205 202 201 198 194 195 193 189 189 186 181 178 181 187 181 181 188 187 183 178 182 184 183 189 201 223 212 198 196 200 192 186 177 184 197 187 195
139 160 160 134 149 224 270 278 297 282 259 209 193 189 199 199 197 199 196 190 188 188 188 187 186 189 188 187 185 184 182 176 178 181 177 182 194 209 194 194 192 195 186 180 173 183 195 181 190
136 143 108 121 144 225 281 268 248 253 238 217 191 197 207 200 197 198 194 192 190 191 190 185 185 191 189 186 188 189 183 181 178 174 183 184 187 188 175 178 180 185 181 176 170 171 175 168 179
109 101 107 114 149 160 228 265 232 218 216 204 208 203 204 203 206 203 195 191 184 178 180 184 187 185 185 186 187 184 178 174 172 182 195 188 186 183 183 187 177 173 170 166 162 170 166 162 161
146 157 145 149 202 175 180 261 276 224 218 198 206 211 209 204 203 203 193 179 174 178 181 188 189 189 191 185 181 182 178 172 178 187 191 182 183 185 182 172 162 167 163 163 165 172 167 168 169